Regional Weather Roundup
Issued by NWS

Home | Current Version | Previous Version | Graphics & Text | Print | Product List | Glossary On
Versions: 1 2 3 4 5 6 7 8 9 10 11 12 13 14 15 16 17 18 19 20 21 22 23 24 25 26 27 28 29 30 31 32 33 34 35 36 37 38 39 40 41 42 43 44 45 46 47 48 49 50
000
ASUS43 KLMK 260402
RWRKY
KENTUCKY REGIONAL WEATHER ROUNDUP
NATIONAL WEATHER SERVICE LOUISVILLE KY
1200 AM EDT FRI AUG 26 2016

NOTE "FAIR" INDICATES FEW OR NO CLOUDS BELOW 12,000 FEET
WITH NO SIGNIFICANT WEATHER AND/OR OBSTRUCTIONS TO VISIBILITY.

KYZ001>023-026-027-061>063-070>075-260500-
WESTERN AND SOUTH CENTRAL KENTUCKY

CITY           SKY/WX    TMP DP  RH WIND       PRES   REMARKS
PADUCAH        PTCLDY    77  74  90 CALM      30.06S
HENDERSON      MOCLDY    73  70  88 CALM      30.06R
OWENSBORO      CLEAR     77  75  93 S5        30.08S
HOPKINSVILLE   CLEAR     80  75  85 CALM      30.09R
BOWLING GREEN  CLEAR     80  74  81 W3        30.10R
GLASGOW        CLEAR     75  75 100 CALM      30.11R
$$

KYZ024-025-028>034-038-045-046-053-260500-
NORTH CENTRAL KENTUCKY

CITY           SKY/WX    TMP DP  RH WIND       PRES   REMARKS
LOUISVILLE/SDF PTCLDY    81  70  69 SW3       30.08R
LOUISVILLE/LOU CLEAR     81  70  69 CALM      30.09R
FORT KNOX      CLEAR     72  70  95 SW2       30.09R
$$

KYZ035>037-039>044-047>052-055>060-089>105-260500-
NORTHEAST KENTUCKY

CITY           SKY/WX    TMP DP  RH WIND       PRES   REMARKS
LEXINGTON      CLEAR     76  71  85 SW5       30.11R
COVINGTON      CLEAR     79  72  79 VRB5      30.09R
FRANKFORT      CLEAR     75  69  81 CALM      30.09R
$$

KYZ054-064>069-076>088-106>120-260500-
SOUTHEAST KENTUCKY

CITY           SKY/WX    TMP DP  RH WIND       PRES   REMARKS
JACKSON        CLEAR     76  72  87 CALM      30.14R
LONDON         PTCLDY    75  71  87 CALM      30.14R
SOMERSET       PTCLDY    72  72 100 CALM      30.13S
MIDDLESBORO    PTCLDY    72  72 100 CALM      30.15S
MONTICELLO     CLEAR    N/A N/A N/A W5        30.14S
$$





USA.gov is the U.S. government's official web portal to all federal, state and local government web resources and services.